Time,TemperatureF,DewpointF,PressureIn,WindDirection,WindDirectionDegrees,WindSpeedMPH,WindSpeedGustMPH,Humidity,HourlyPrecipIn,Conditions,Clouds,dailyrainin,SoftwareType,DateUTC
2013-01-02 00:10:00,40.2,40.0,30.18,NE,40,0.0,-999.0,100,-99.99,,,0.00,weatherlink.com 1.10,2013-01-01 22:10:00,
2013-01-02 00:25:00,40.5,41.0,30.18,NE,49,0.0,-999.0,100,-99.99,,,0.00,weatherlink.com 1.10,2013-01-01 22:25:00,
2013-01-02 00:40:00,40.5,41.0,30.17,NE,49,0.0,-999.0,100,-99.99,,,0.00,weatherlink.com 1.10,2013-01-01 22:40:00,
2013-01-02 00:55:00,40.5,41.0,30.17,NE,49,0.0,-999.0,100,-99.99,,,0.00,weatherlink.com 1.10,2013-01-01 22:55:00,
2013-01-02 01:10:00,40.1,40.0,30.18,NE,49,0.0,-999.0,100,-99.99,,,0.00,weatherlink.com 1.10,2013-01-01 23:10:00,
2013-01-02 01:25:00,40.1,40.0,30.17,NE,49,0.0,-999.0,100,-99.99,,,0.00,weatherlink.com 1.10,2013-01-01 23:25:00,
2013-01-02 01:40:00,39.8,40.0,30.18,NE,49,0.0,-999.0,100,-99.99,,,0.00,weatherlink.com 1.10,2013-01-01 23:40:00,
2013-01-02 01:55:00,39.8,40.0,30.18,NE,49,0.0,-999.0,100,-99.99,,,0.00,weatherlink.com 1.10,2013-01-01 23:55:00,
2013-01-02 02:10:00,40.2,40.0,30.18,NE,49,0.0,-999.0,100,-99.99,,,0.00,weatherlink.com 1.10,2013-01-02 00:10:00,
2013-01-02 02:25:00,40.3,40.0,30.18,NE,49,0.0,-999.0,100,-99.99,,,0.00,weatherlink.com 1.10,2013-01-02 00:25:00,
2013-01-02 02:40:00,39.9,40.0,30.18,NE,49,0.0,-999.0,100,-99.99,,,0.00,weatherlink.com 1.10,2013-01-02 00:40:00,
2013-01-02 02:55:00,39.6,40.0,30.18,NE,49,0.0,-999.0,100,-99.99,,,0.00,weatherlink.com 1.10,2013-01-02 00:55:00,
2013-01-02 03:10:00,39.6,40.0,30.18,NE,49,0.0,-999.0,100,-99.99,,,0.00,weatherlink.com 1.10,2013-01-02 01:10:00,
2013-01-02 03:25:00,39.6,40.0,30.18,NE,49,0.0,-999.0,100,-99.99,,,0.00,weatherlink.com 1.10,2013-01-02 01:25:00,
2013-01-02 03:40:00,39.5,40.0,30.18,NE,49,0.0,-999.0,100,-99.99,,,0.00,weatherlink.com 1.10,2013-01-02 01:40:00,
2013-01-02 03:55:00,39.2,39.0,30.18,NE,49,0.0,-999.0,100,-99.99,,,0.00,weatherlink.com 1.10,2013-01-02 01:55:00,
2013-01-02 04:10:00,39.3,39.0,30.19,NE,49,0.0,-999.0,100,-99.99,,,0.00,weatherlink.com 1.10,2013-01-02 02:10:00,
2013-01-02 04:25:00,38.6,39.0,30.19,NE,49,0.0,-999.0,100,-99.99,,,0.00,weatherlink.com 1.10,2013-01-02 02:25:00,
2013-01-02 04:40:00,38.6,39.0,30.19,NE,49,0.0,-999.0,100,-99.99,,,0.00,weatherlink.com 1.10,2013-01-02 02:40:00,
2013-01-02 04:55:00,38.9,39.0,30.19,NE,44,0.0,-999.0,100,-99.99,,,0.00,weatherlink.com 1.10,2013-01-02 02:55:00,
2013-01-02 05:10:00,38.9,39.0,30.19,NE,56,0.0,-999.0,100,-99.99,,,0.00,weatherlink.com 1.10,2013-01-02 03:10:00,
2013-01-02 05:25:00,38.9,39.0,30.19,NE,35,0.0,-999.0,100,-99.99,,,0.00,weatherlink.com 1.10,2013-01-02 03:25:00,
2013-01-02 05:40:00,39.1,39.0,30.19,East,86,0.0,-999.0,100,-99.99,,,0.00,weatherlink.com 1.10,2013-01-02 03:40:00,
2013-01-02 05:55:00,39.6,40.0,30.19,East,86,0.0,-999.0,100,-99.99,,,0.00,weatherlink.com 1.10,2013-01-02 03:55:00,
2013-01-02 06:10:00,39.6,40.0,30.19,East,86,0.0,-999.0,100,-99.99,,,0.00,weatherlink.com 1.10,2013-01-02 04:10:00,
2013-01-02 06:25:00,39.8,40.0,30.20,East,86,0.0,-999.0,100,-99.99,,,0.00,weatherlink.com 1.10,2013-01-02 04:25:00,
2013-01-02 06:40:00,40.1,40.0,30.20,East,86,0.0,-999.0,100,-99.99,,,0.00,weatherlink.com 1.10,2013-01-02 04:40:00,
2013-01-02 06:55:00,40.2,40.0,30.20,East,86,0.0,-999.0,100,-99.99,,,0.00,weatherlink.com 1.10,2013-01-02 04:55:00,
2013-01-02 07:10:00,40.5,41.0,30.21,East,86,0.0,-999.0,100,-99.99,,,0.00,weatherlink.com 1.10,2013-01-02 05:10:00,
2013-01-02 07:25:00,40.6,41.0,30.21,East,86,0.0,-999.0,100,-99.99,,,0.00,weatherlink.com 1.10,2013-01-02 05:25:00,
2013-01-02 07:40:00,40.5,41.0,30.21,East,86,0.0,-999.0,100,-99.99,,,0.00,weatherlink.com 1.10,2013-01-02 05:40:00,
2013-01-02 07:55:00,40.2,40.0,30.21,East,86,0.0,-999.0,100,-99.99,,,0.00,weatherlink.com 1.10,2013-01-02 05:55:00,
2013-01-02 08:10:00,40.6,41.0,30.22,East,86,0.0,-999.0,100,-99.99,,,0.00,weatherlink.com 1.10,2013-01-02 06:10:00,
2013-01-02 08:25:00,41.2,41.0,30.22,ESE,117,0.0,-999.0,100,-99.99,,,0.00,weatherlink.com 1.10,2013-01-02 06:25:00,
2013-01-02 08:40:00,42.2,42.0,30.22,East,88,0.0,-999.0,100,-99.99,,,0.00,weatherlink.com 1.10,2013-01-02 06:40:00,
2013-01-02 08:55:00,42.2,42.0,30.23,East,88,0.0,-999.0,100,-99.99,,,0.00,weatherlink.com 1.10,2013-01-02 06:55:00,
2013-01-02 09:10:00,42.2,42.0,30.22,ENE,65,0.0,-999.0,100,-99.99,,,0.00,weatherlink.com 1.10,2013-01-02 07:10:00,
2013-01-02 09:26:00,42.6,43.0,30.23,NNE,32,0.0,-999.0,100,-99.99,,,0.00,weatherlink.com 1.10,2013-01-02 07:26:00,
2013-01-02 09:41:00,43.1,43.0,30.23,NNE,32,0.0,-999.0,100,-99.99,,,0.00,weatherlink.com 1.10,2013-01-02 07:41:00,
2013-01-02 09:56:00,43.5,44.0,30.24,NE,45,0.0,-999.0,100,-99.99,,,0.00,weatherlink.com 1.10,2013-01-02 07:56:00,
2013-01-02 10:11:00,44.1,44.0,30.24,NNE,28,1.0,-999.0,100,-99.99,,,0.00,weatherlink.com 1.10,2013-01-02 08:11:00,
2013-01-02 10:26:00,44.9,45.0,30.24,NE,38,1.0,-999.0,100,-99.99,,,0.00,weatherlink.com 1.10,2013-01-02 08:26:00,
2013-01-02 10:41:00,45.5,46.0,30.24,NNE,17,1.0,-999.0,100,-99.99,,,0.00,weatherlink.com 1.10,2013-01-02 08:41:00,
2013-01-02 10:56:00,46.4,46.0,30.24,NE,48,0.0,-999.0,100,-99.99,,,0.00,weatherlink.com 1.10,2013-01-02 08:56:00,
2013-01-02 11:11:00,47.6,48.0,30.24,SSW,200,5.0,-999.0,100,-99.99,,,0.00,weatherlink.com 1.10,2013-01-02 09:11:00,
2013-01-02 11:26:00,49.1,49.0,30.24,South,176,0.0,-999.0,100,-99.99,,,0.00,weatherlink.com 1.10,2013-01-02 09:26:00,
2013-01-02 11:41:00,49.9,50.0,30.23,South,186,0.0,-999.0,100,-99.99,,,0.00,weatherlink.com 1.10,2013-01-02 09:41:00,
2013-01-02 11:56:00,50.7,51.0,30.23,SSW,210,0.0,-999.0,100,-99.99,,,0.00,weatherlink.com 1.10,2013-01-02 09:56:00,
2013-01-02 12:11:00,51.0,51.0,30.23,SSW,212,4.0,-999.0,100,-99.99,,,0.00,weatherlink.com 1.10,2013-01-02 10:11:00,
2013-01-02 12:26:00,51.4,51.0,30.22,SE,144,0.0,-999.0,100,-99.99,,,0.00,weatherlink.com 1.10,2013-01-02 10:26:00,
2013-01-02 12:41:00,51.4,51.0,30.22,SW,226,1.0,-999.0,100,-99.99,,,0.00,weatherlink.com 1.10,2013-01-02 10:41:00,
2013-01-02 12:56:00,51.7,52.0,30.22,South,171,2.0,-999.0,100,-99.99,,,0.00,weatherlink.com 1.10,2013-01-02 10:56:00,
2013-01-02 13:11:00,52.2,52.0,30.22,SSE,158,7.0,-999.0,100,-99.99,,,0.00,weatherlink.com 1.10,2013-01-02 11:11:00,
2013-01-02 13:26:00,52.2,52.0,30.22,NNW,333,1.0,-999.0,100,-99.99,,,0.00,weatherlink.com 1.10,2013-01-02 11:26:00,
2013-01-02 13:41:00,52.3,52.0,30.22,SSE,165,0.0,-999.0,100,-99.99,,,0.01,weatherlink.com 1.10,2013-01-02 11:41:00,
2013-01-02 13:56:00,52.5,53.0,30.22,South,169,3.0,-999.0,100,-99.99,,,0.01,weatherlink.com 1.10,2013-01-02 11:56:00,
2013-01-02 14:12:00,52.8,53.0,30.22,SSE,152,1.0,-999.0,100,-99.99,,,0.01,weatherlink.com 1.10,2013-01-02 12:12:00,
2013-01-02 14:27:00,52.5,53.0,30.22,ESE,120,2.0,-999.0,100,-99.99,,,0.01,weatherlink.com 1.10,2013-01-02 12:27:00,
2013-01-02 14:42:00,52.3,52.0,30.23,SE,144,0.0,-999.0,100,-99.99,,,0.01,weatherlink.com 1.10,2013-01-02 12:42:00,
2013-01-02 14:57:00,52.0,52.0,30.23,NNE,30,3.0,-999.0,100,-99.99,,,0.01,weatherlink.com 1.10,2013-01-02 12:57:00,
2013-01-02 15:12:00,51.4,51.0,30.23,NE,34,5.0,-999.0,100,-99.99,,,0.01,weatherlink.com 1.10,2013-01-02 13:12:00,
2013-01-02 15:27:00,50.1,50.0,30.24,NE,44,2.0,-999.0,100,-99.99,,,0.01,weatherlink.com 1.10,2013-01-02 13:27:00,
2013-01-02 15:42:00,48.8,49.0,30.24,NE,40,0.0,-999.0,100,-99.99,,,0.01,weatherlink.com 1.10,2013-01-02 13:42:00,
2013-01-02 15:57:00,47.9,48.0,30.24,NE,40,1.0,-999.0,100,-99.99,,,0.01,weatherlink.com 1.10,2013-01-02 13:57:00,
2013-01-02 16:12:00,47.3,47.0,30.25,NNE,30,2.0,-999.0,100,-99.99,,,0.01,weatherlink.com 1.10,2013-01-02 14:12:00,
2013-01-02 16:27:00,46.4,46.0,30.25,NNE,28,5.0,-999.0,100,-99.99,,,0.01,weatherlink.com 1.10,2013-01-02 14:27:00,
2013-01-02 16:42:00,45.7,46.0,30.25,NE,35,5.0,-999.0,100,-99.99,,,0.01,weatherlink.com 1.10,2013-01-02 14:42:00,
2013-01-02 16:57:00,45.1,45.0,30.26,NNE,27,3.0,-999.0,100,-99.99,,,0.01,weatherlink.com 1.10,2013-01-02 14:57:00,
2013-01-02 17:12:00,44.6,45.0,30.26,NNE,20,5.0,-999.0,100,-99.99,,,0.01,weatherlink.com 1.10,2013-01-02 15:12:00,
2013-01-02 17:27:00,44.5,45.0,30.26,NE,41,2.0,-999.0,100,-99.99,,,0.01,weatherlink.com 1.10,2013-01-02 15:27:00,
2013-01-02 17:43:00,44.2,44.0,30.27,NE,48,2.0,-999.0,100,-99.99,,,0.01,weatherlink.com 1.10,2013-01-02 15:43:00,
2013-01-02 18:13:00,43.9,44.0,30.27,NE,45,0.0,-999.0,100,-99.99,,,0.01,weatherlink.com 1.10,2013-01-02 16:13:00,
2013-01-02 18:28:00,43.9,44.0,30.28,NE,45,0.0,-999.0,100,-99.99,,,0.01,weatherlink.com 1.10,2013-01-02 16:28:00,
2013-01-02 18:43:00,43.9,44.0,30.28,NE,45,0.0,-999.0,100,-99.99,,,0.01,weatherlink.com 1.10,2013-01-02 16:43:00,
2013-01-02 18:58:00,43.6,44.0,30.29,NE,45,0.0,-999.0,100,-99.99,,,0.01,weatherlink.com 1.10,2013-01-02 16:58:00,
2013-01-02 19:13:00,43.9,44.0,30.29,NE,45,0.0,-999.0,100,-99.99,,,0.01,weatherlink.com 1.10,2013-01-02 17:13:00,
2013-01-02 19:28:00,43.9,44.0,30.29,NE,45,0.0,-999.0,100,-99.99,,,0.01,weatherlink.com 1.10,2013-01-02 17:28:00,
2013-01-02 19:43:00,44.1,44.0,30.29,NE,45,0.0,-999.0,100,-99.99,,,0.01,weatherlink.com 1.10,2013-01-02 17:43:00,
2013-01-02 19:58:00,43.9,44.0,30.29,ENE,76,0.0,-999.0,100,-99.99,,,0.01,weatherlink.com 1.10,2013-01-02 17:58:00,
2013-01-02 20:13:00,43.9,44.0,30.30,ENE,76,0.0,-999.0,100,-99.99,,,0.01,weatherlink.com 1.10,2013-01-02 18:13:00,
2013-01-02 20:28:00,43.5,44.0,30.30,ENE,76,0.0,-999.0,100,-99.99,,,0.01,weatherlink.com 1.10,2013-01-02 18:28:00,
2013-01-02 20:43:00,43.2,43.0,30.30,ENE,75,0.0,-999.0,100,-99.99,,,0.01,weatherlink.com 1.10,2013-01-02 18:43:00,
2013-01-02 20:58:00,43.2,43.0,30.30,West,281,2.0,-999.0,100,-99.99,,,0.01,weatherlink.com 1.10,2013-01-02 18:58:00,
2013-01-02 21:14:00,43.2,43.0,30.31,West,280,1.0,-999.0,100,-99.99,,,0.01,weatherlink.com 1.10,2013-01-02 19:14:00,
2013-01-02 21:29:00,43.5,44.0,30.31,WNW,285,4.0,-999.0,100,-99.99,,,0.01,weatherlink.com 1.10,2013-01-02 19:29:00,
2013-01-02 21:44:00,43.5,44.0,30.31,West,275,3.0,-999.0,100,-99.99,,,0.01,weatherlink.com 1.10,2013-01-02 19:44:00,
2013-01-02 21:59:00,43.3,43.0,30.32,WNW,282,3.0,-999.0,100,-99.99,,,0.01,weatherlink.com 1.10,2013-01-02 19:59:00,
2013-01-02 22:14:00,43.1,43.0,30.32,West,277,5.0,-999.0,100,-99.99,,,0.01,weatherlink.com 1.10,2013-01-02 20:14:00,
2013-01-02 22:29:00,42.6,43.0,30.32,West,264,1.0,-999.0,100,-99.99,,,0.01,weatherlink.com 1.10,2013-01-02 20:29:00,
2013-01-02 22:44:00,42.3,42.0,30.32,WNW,285,0.0,-999.0,100,-99.99,,,0.01,weatherlink.com 1.10,2013-01-02 20:44:00,
2013-01-02 22:59:00,42.2,42.0,30.33,West,281,0.0,-999.0,100,-99.99,,,0.01,weatherlink.com 1.10,2013-01-02 20:59:00,
2013-01-02 23:14:00,41.8,42.0,30.33,West,281,0.0,-999.0,100,-99.99,,,0.01,weatherlink.com 1.10,2013-01-02 21:14:00,
2013-01-02 23:29:00,41.5,42.0,30.33,West,281,0.0,-999.0,100,-99.99,,,0.01,weatherlink.com 1.10,2013-01-02 21:29:00,
2013-01-02 23:44:00,41.6,42.0,30.33,West,281,0.0,-999.0,100,-99.99,,,0.01,weatherlink.com 1.10,2013-01-02 21:44:00,
2013-01-02 23:59:00,41.6,42.0,30.33,West,281,0.0,-999.0,100,-99.99,,,0.00,weatherlink.com 1.10,2013-01-02 21:59:00,